Time,TemperatureF,DewpointF,PressureIn,WindDirection,WindDirectionDegrees,WindSpeedMPH,WindSpeedGustMPH,Humidity,HourlyPrecipIn,Conditions,Clouds,dailyrainin,SoftwareType,DateUTC
2013-07-22 00:02:00,57.0,-99.9,-100.00,South,180,1.0,3.0,-999,0.00,,,0.00,,2013-07-22 05:02:00,
2013-07-22 00:12:00,57.0,-99.9,-100.00,South,180,0.0,2.0,-999,0.00,,,0.00,,2013-07-22 05:12:00,
2013-07-22 00:32:00,56.0,-99.9,-100.00,South,180,0.0,2.0,-999,0.00,,,0.00,,2013-07-22 05:32:00,
2013-07-22 00:43:00,56.0,-99.9,-100.00,South,180,0.0,2.0,-999,0.00,,,0.00,,2013-07-22 05:43:00,
2013-07-22 00:52:00,56.0,-99.9,-100.00,South,180,0.0,2.0,-999,0.00,,,0.00,,2013-07-22 05:52:00,
2013-07-22 01:01:00,56.0,-99.9,-100.00,South,180,0.0,2.0,-999,0.00,,,0.00,,2013-07-22 06:01:00,
2013-07-22 01:11:00,56.0,-99.9,-100.00,South,180,0.0,3.0,-999,0.00,,,0.00,,2013-07-22 06:11:00,
2013-07-22 01:33:00,55.0,-99.9,-100.00,South,180,1.0,3.0,-999,0.00,,,0.00,,2013-07-22 06:33:00,
2013-07-22 01:43:00,55.0,-99.9,-100.00,South,180,0.0,3.0,-999,0.00,,,0.00,,2013-07-22 06:43:00,
2013-07-22 02:01:00,56.0,-99.9,-100.00,South,180,0.0,2.0,-999,0.00,,,0.00,,2013-07-22 07:01:00,
2013-07-22 02:12:00,55.0,-99.9,-100.00,South,180,0.0,2.0,-999,0.00,,,0.00,,2013-07-22 07:12:00,
2013-07-22 02:33:00,55.0,-99.9,-100.00,South,180,0.0,3.0,-999,0.00,,,0.00,,2013-07-22 07:33:00,
2013-07-22 02:43:00,55.0,-99.9,-100.00,South,180,0.0,2.0,-999,0.00,,,0.00,,2013-07-22 07:43:00,
2013-07-22 03:02:00,55.0,-99.9,-100.00,South,180,1.0,3.0,-999,0.00,,,0.00,,2013-07-22 08:02:00,
2013-07-22 03:11:00,55.0,-99.9,-100.00,SE,135,1.0,3.0,-999,0.00,,,0.00,,2013-07-22 08:11:00,
2013-07-22 03:22:00,55.0,-99.9,-100.00,South,180,1.0,3.0,-999,0.00,,,0.00,,2013-07-22 08:22:00,
2013-07-22 03:32:00,54.0,-99.9,-100.00,South,180,0.0,3.0,-999,0.00,,,0.00,,2013-07-22 08:32:00,
2013-07-22 03:43:00,54.0,-99.9,-100.00,South,180,0.0,2.0,-999,0.00,,,0.00,,2013-07-22 08:43:00,
2013-07-22 04:02:00,54.0,-99.9,-100.00,South,180,0.0,3.0,-999,0.00,,,0.00,,2013-07-22 09:02:00,
2013-07-22 04:11:00,54.0,-99.9,-100.00,South,180,1.0,3.0,-999,0.00,,,0.00,,2013-07-22 09:11:00,
2013-07-22 04:33:00,54.0,-99.9,-100.00,South,180,2.0,3.0,-999,0.00,,,0.00,,2013-07-22 09:33:00,
2013-07-22 04:42:00,54.0,-99.9,-100.00,South,180,2.0,3.0,-999,0.00,,,0.00,,2013-07-22 09:42:00,
2013-07-22 05:02:00,55.0,-99.9,-100.00,SSW,203,1.0,3.0,-999,0.00,,,0.00,,2013-07-22 10:02:00,
2013-07-22 05:11:00,55.0,-99.9,-100.00,SSW,203,1.0,3.0,-999,0.00,,,0.00,,2013-07-22 10:11:00,
2013-07-22 05:32:00,55.0,-99.9,-100.00,SSW,203,1.0,2.0,-999,0.00,,,0.00,,2013-07-22 10:32:00,
2013-07-22 05:43:00,55.0,-99.9,-100.00,SSW,203,0.0,2.0,-999,0.00,,,0.00,,2013-07-22 10:43:00,
2013-07-22 06:02:00,56.0,-99.9,-100.00,SSW,203,5.0,7.0,-999,0.00,,,0.00,,2013-07-22 11:02:00,
2013-07-22 06:11:00,56.0,-99.9,-100.00,SSW,203,2.0,6.0,-999,0.00,,,0.00,,2013-07-22 11:11:00,
2013-07-22 06:32:00,56.0,-99.9,-100.00,SSW,203,2.0,6.0,-999,0.00,,,0.00,,2013-07-22 11:32:00,
2013-07-22 06:43:00,56.0,-99.9,-100.00,SSW,203,2.0,7.0,-999,0.00,,,0.00,,2013-07-22 11:43:00,
2013-07-22 07:02:00,56.0,-99.9,-100.00,South,180,5.0,12.0,-999,0.00,,,0.00,,2013-07-22 12:02:00,
2013-07-22 07:12:00,57.0,-99.9,-100.00,SSW,203,6.0,10.0,-999,0.00,,,0.00,,2013-07-22 12:12:00,
2013-07-22 07:33:00,57.0,-99.9,-100.00,SSW,203,5.0,10.0,-999,0.00,,,0.00,,2013-07-22 12:33:00,
2013-07-22 07:43:00,57.0,-99.9,-100.00,SSW,203,5.0,10.0,-999,0.00,,,0.00,,2013-07-22 12:43:00,
2013-07-22 08:01:00,58.0,-99.9,-100.00,SSW,203,2.0,6.0,-999,0.00,,,0.00,,2013-07-22 13:01:00,
2013-07-22 08:11:00,58.0,-99.9,-100.00,SW,225,3.0,6.0,-999,0.00,,,0.00,,2013-07-22 13:11:00,
2013-07-22 08:32:00,59.0,-99.9,-100.00,SSW,203,3.0,12.0,-999,0.00,,,0.00,,2013-07-22 13:32:00,
2013-07-22 08:43:00,60.0,-99.9,-100.00,SW,225,7.0,10.0,-999,0.00,,,0.00,,2013-07-22 13:43:00,
2013-07-22 08:53:00,60.0,-99.9,-100.00,SW,225,5.0,10.0,-999,0.00,,,0.00,,2013-07-22 13:53:00,
2013-07-22 09:02:00,60.0,-99.9,-100.00,SW,225,6.0,12.0,-999,0.00,,,0.00,,2013-07-22 14:02:00,
2013-07-22 09:12:00,60.0,-99.9,-100.00,SW,225,3.0,12.0,-999,0.00,,,0.00,,2013-07-22 14:12:00,
2013-07-22 09:32:00,62.0,-99.9,-100.00,SSW,203,5.0,10.0,-999,0.00,,,0.00,,2013-07-22 14:32:00,
2013-07-22 09:43:00,62.0,-99.9,-100.00,SSW,203,5.0,10.0,-999,0.00,,,0.00,,2013-07-22 14:43:00,
2013-07-22 09:53:00,62.0,-99.9,-100.00,SSW,203,5.0,10.0,-999,0.00,,,0.00,,2013-07-22 14:53:00,
2013-07-22 10:02:00,62.0,-99.9,-100.00,SSW,203,5.0,10.0,-999,0.00,,,0.00,,2013-07-22 15:02:00,
2013-07-22 10:12:00,62.0,-99.9,-100.00,SSW,203,5.0,10.0,-999,0.00,,,0.00,,2013-07-22 15:12:00,
2013-07-22 15:43:00,82.0,-99.9,-100.00,WSW,248,6.0,13.0,-999,0.00,,,0.00,,2013-07-22 20:43:00,
2013-07-22 16:01:00,80.0,-99.9,-100.00,SW,225,10.0,18.0,-999,0.00,,,0.00,,2013-07-22 21:01:00,
2013-07-22 16:12:00,78.0,-99.9,-100.00,WSW,248,7.0,21.0,-999,0.00,,,0.00,,2013-07-22 21:12:00,
2013-07-22 16:33:00,78.0,-99.9,-100.00,WSW,248,6.0,20.0,-999,0.00,,,0.00,,2013-07-22 21:33:00,
2013-07-22 16:43:00,78.0,-99.9,-100.00,WSW,248,5.0,13.0,-999,0.00,,,0.00,,2013-07-22 21:43:00,
2013-07-22 17:02:00,78.0,-99.9,-100.00,West,270,5.0,17.0,-999,0.00,,,0.00,,2013-07-22 22:02:00,
2013-07-22 17:11:00,76.0,-99.9,-100.00,WSW,248,3.0,14.0,-999,0.00,,,0.00,,2013-07-22 22:11:00,
2013-07-22 17:32:00,77.0,-99.9,-100.00,WSW,248,1.0,9.0,-999,0.00,,,0.00,,2013-07-22 22:32:00,
2013-07-22 17:43:00,78.0,-99.9,-100.00,WSW,248,5.0,7.0,-999,0.00,,,0.00,,2013-07-22 22:43:00,
2013-07-22 17:52:00,78.0,-99.9,-100.00,WSW,248,6.0,16.0,-999,0.00,,,0.00,,2013-07-22 22:52:00,
2013-07-22 18:02:00,77.0,-99.9,-100.00,West,270,3.0,13.0,-999,0.00,,,0.00,,2013-07-22 23:02:00,
2013-07-22 18:11:00,77.0,-99.9,-100.00,NNW,338,1.0,12.0,-999,0.00,,,0.00,,2013-07-22 23:11:00,
2013-07-22 18:32:00,72.0,-99.9,-100.00,North,0,1.0,3.0,-999,0.00,,,0.00,,2013-07-22 23:32:00,
2013-07-22 18:43:00,72.0,-99.9,-100.00,North,0,1.0,2.0,-999,0.00,,,0.00,,2013-07-22 23:43:00,
2013-07-22 19:01:00,72.0,-99.9,-100.00,North,0,0.0,3.0,-999,0.00,,,0.00,,2013-07-23 00:01:00,
2013-07-22 19:12:00,73.0,-99.9,-100.00,North,0,1.0,5.0,-999,0.00,,,0.00,,2013-07-23 00:12:00,
2013-07-22 19:32:00,73.0,-99.9,-100.00,NE,45,2.0,5.0,-999,0.00,,,0.00,,2013-07-23 00:32:00,
2013-07-22 19:43:00,73.0,-99.9,-100.00,North,0,2.0,12.0,-999,0.00,,,0.00,,2013-07-23 00:43:00,
2013-07-22 20:01:00,72.0,-99.9,-100.00,North,0,2.0,6.0,-999,0.00,,,0.00,,2013-07-23 01:01:00,
2013-07-22 20:11:00,70.0,-99.9,-100.00,NNW,338,5.0,8.0,-999,0.00,,,0.00,,2013-07-23 01:11:00,
2013-07-22 20:32:00,67.0,-99.9,-100.00,North,0,0.0,7.0,-999,0.00,,,0.00,,2013-07-23 01:32:00,
2013-07-22 20:44:00,66.0,-99.9,-100.00,North,0,1.0,6.0,-999,0.00,,,0.00,,2013-07-23 01:44:00,
2013-07-22 21:02:00,65.0,-99.9,-100.00,NNE,23,0.0,3.0,-999,0.00,,,0.00,,2013-07-23 02:02:00,
2013-07-22 21:11:00,64.0,-99.9,-100.00,North,0,1.0,5.0,-999,0.00,,,0.00,,2013-07-23 02:11:00,
2013-07-22 21:33:00,63.0,-99.9,-100.00,NNE,23,1.0,3.0,-999,0.00,,,0.00,,2013-07-23 02:33:00,
2013-07-22 21:43:00,63.0,-99.9,-100.00,North,0,1.0,3.0,-999,0.00,,,0.00,,2013-07-23 02:43:00,
2013-07-22 22:02:00,62.0,-99.9,-100.00,NW,315,0.0,3.0,-999,0.00,,,0.00,,2013-07-23 03:02:00,
2013-07-22 22:11:00,62.0,-99.9,-100.00,NW,315,0.0,1.0,-999,0.00,,,0.00,,2013-07-23 03:11:00,
2013-07-22 22:33:00,61.0,-99.9,-100.00,NW,315,0.0,1.0,-999,0.00,,,0.00,,2013-07-23 03:33:00,
2013-07-22 22:43:00,60.0,-99.9,-100.00,NW,315,0.0,1.0,-999,0.00,,,0.00,,2013-07-23 03:43:00,
2013-07-22 23:02:00,60.0,-99.9,-100.00,North,0,0.0,3.0,-999,0.00,,,0.00,,2013-07-23 04:02:00,
2013-07-22 23:11:00,60.0,-99.9,-100.00,WNW,293,0.0,3.0,-999,0.00,,,0.00,,2013-07-23 04:11:00,
2013-07-22 23:22:00,60.0,-99.9,-100.00,WNW,293,0.0,3.0,-999,0.00,,,0.00,,2013-07-23 04:22:00,
2013-07-22 23:32:00,59.0,-99.9,-100.00,North,0,0.0,2.0,-999,0.00,,,0.00,,2013-07-23 04:32:00,
2013-07-22 23:43:00,58.0,-99.9,-100.00,North,0,0.0,2.0,-999,0.00,,,0.00,,2013-07-23 04:43:00,